[[{"header":{"parameterUnit":"m.s-1","parameterCategory":1,"la1":30.2991,"la2":30.254,"lo1":-89.0895,"lo2":-89.0444,"dy":0.0017,"dx":0.0017,"nx":28,"ny":28,"refTime":"2023-03-19T21:00:00:Z","depth":0,"parameterNumber":2,"parameterNumberName":"U-component_of_WINDS"},"data":[0,0,0,0,0,0,0,0,0,0,0,0,0,0,0,0,0,0,0,0,0,0,0,0,0,0,0,0,0,0,0,0,0,0,0,0,0,0,0,0,0,0,0,0,0,0,0,0,0,0,0,0,0,0,0,0,0,0,2.595,2.595,0,2.5959,2.5959,2.5959,2.5937,2.5936,2.5936,2.5935,2.5944,2.5945,2.5946,0,0,0,0,0,0,0,0,0,0,0,0,0,2.5915,2.5916,2.595,2.595,2.595,2.5959,2.5959,2.5959,2.5937,2.5936,2.5935,2.5935,2.5944,2.5945,2.5946,0,0,0,0,0,0,0,0,0,0,0,0,0,2.5928,2.5916,2.595,2.594,2.5939,2.5959,2.5959,2.5959,2.5937,2.5936,2.5935,2.5934,2.5944,2.5945,2.5946,2.5975,0,0,2.595,2.5951,0,0,0,0,0,0,0,0,2.5927,2.5929,2.5941,2.5941,2.594,2.5946,2.595,2.5964,2.5938,2.5938,2.5935,2.5934,2.5946,2.5947,2.5951,2.5976,2.5976,2.595,2.5951,2.5952,2.5952,0,0,0,0,0,0,0,2.5926,2.5929,2.5953,2.5942,2.5941,2.5936,2.5936,2.5953,2.5948,2.5938,2.5936,2.5938,2.5945,2.5949,2.5951,2.5976,2.595,2.5952,2.5952,2.5953,2.6028,2.6029,0,0,0,0,0,0,2.5926,2.5928,2.5953,2.5953,2.5931,2.5937,2.5938,2.5945,2.5947,2.5947,2.5939,2.5937,2.5948,2.5949,2.5951,2.5986,2.5952,2.5953,2.5954,2.6027,2.6028,2.6029,0,0,0,0,0,0,2.5926,2.5929,2.5953,2.594,2.5943,2.5939,2.5947,2.5946,2.595,2.5948,2.5947,2.5944,2.5947,2.5949,2.597,2.5986,2.5954,2.5955,2.6025,2.6027,2.6029,2.6056,0,0,0,0,0,0,2.5925,2.5929,2.5939,2.5941,2.5944,2.5971,2.5948,2.5947,2.5952,2.595,2.5953,2.5952,2.5946,2.5968,2.5971,2.5987,2.5956,2.6024,2.6026,2.6028,2.6054,2.6059,2.6063,0,0,0,0,0,2.5924,2.5946,2.594,2.5943,2.5957,2.5972,2.5974,2.5966,2.5954,2.5965,2.5964,2.5952,2.5984,2.597,2.5974,2.5991,2.6023,2.6025,2.6028,2.6052,2.6058,2.6063,0,0,0,0,0,0,2.5946,2.5946,2.5939,2.5963,2.5968,2.5968,2.5981,2.5973,2.5981,2.5978,2.5969,2.597,2.5993,2.5994,2.5979,2.602,2.6001,2.6005,2.6018,2.6024,2.6028,2.6027,2.5957,0,0,0,0,0,2.5954,2.5966,2.5965,2.5986,2.5989,2.5985,2.5991,2.5986,2.599,2.5992,2.5992,2.5998,2.6009,2.6016,2.6027,2.6054,2.6055,2.6068,2.6072,2.6076,2.6079,2.6095,2.6101,2.6038,2.6038,2.6038,0,0,2.597,2.5971,2.5979,2.5991,2.5994,2.6007,2.5987,2.6001,2.6011,2.5994,2.6014,2.6015,2.602,2.6045,2.6056,2.6046,2.6097,2.6079,2.6082,2.6083,2.6098,2.6104,2.611,2.604,2.6039,2.6039,0,0,2.6006,2.6008,2.6026,2.603,2.6035,2.6033,2.6037,2.604,2.604,2.606,2.6048,2.606,2.6079,2.6084,2.6089,2.6129,2.6119,2.6133,2.6156,2.6172,2.6177,2.6181,2.6197,2.6202,2.6136,2.6136,2.6136,0,2.6025,2.6044,2.6037,2.6052,2.6058,2.6045,2.6064,2.6068,2.6076,2.6081,2.607,2.6096,2.6098,2.6124,2.6135,2.6139,2.6144,2.6132,2.6177,2.6181,2.6185,2.62,2.6205,2.6138,2.6138,2.6137,2.6137,0,2.6068,2.6081,2.6096,2.6105,2.6112,2.613,2.6126,2.6135,2.6129,2.6128,2.6149,2.6152,2.6164,2.617,2.6164,2.6196,2.619,2.6178,2.6159,2.6193,2.6206,2.6212,2.614,2.614,2.6139,2.6139,0,0,2.6116,2.6122,2.6128,2.6132,2.6138,2.6149,2.6167,2.6178,2.6186,2.6193,2.6208,2.6226,2.6216,2.6222,2.6217,2.6231,2.6264,2.6218,2.6218,2.6227,2.63,2.6309,2.6315,2.6258,2.6259,2.626,2.63,0,2.6152,2.6182,2.6177,2.6206,2.6219,2.6208,2.6223,2.6229,2.6229,2.6241,2.6241,2.6254,2.624,2.6243,2.6256,2.6257,2.6279,2.6254,2.6272,2.6273,2.6271,2.6322,2.6331,2.6369,2.6305,2.6306,2.6307,0,2.6197,2.6207,2.6237,2.6243,2.6248,2.6262,2.6273,2.6284,2.6291,2.6291,2.6298,2.6291,2.631,2.6291,2.6317,2.6301,2.6308,2.631,2.6311,2.6312,2.6292,2.6325,2.6381,2.6387,2.6315,2.6314,2.6314,0,2.623,2.6251,2.6272,2.6276,2.6283,2.6293,2.6297,2.6303,2.6311,2.6321,2.6326,2.6338,2.6344,2.6354,2.6351,2.6338,2.6378,2.6359,2.6379,2.6379,2.6387,2.6387,2.6445,2.6392,2.6392,2.6392,2.6392,0,2.6271,2.629,2.6287,2.63,2.6322,2.6317,2.6339,2.6341,2.6347,2.6361,2.6352,2.6365,2.636,2.6374,2.6372,2.6394,2.6397,2.6398,2.6397,2.6398,2.6398,2.6403,2.64,2.6393,2.6393,2.6393,2.6393,0,2.6311,2.6309,2.6332,2.6337,2.6339,2.6355,2.636,2.6373,2.6373,2.6391,2.6395,2.6395,2.6411,2.6409,2.6426,2.6425,2.6453,2.6449,2.6451,2.645,2.647,2.6468,2.6533,2.6541,2.6483,2.6483,2.6484,0,2.6336,2.6351,2.6359,2.6368,2.6372,2.6386,2.6394,2.6391,2.64,2.641,2.6422,2.6437,2.6449,2.6474,2.6476,2.649,2.6486,2.6508,2.6488,2.649,2.6487,2.6486,2.6488,2.6512,2.6513,2.6513,2.6514,0,2.6383,2.6382,2.6394,2.6407,2.6417,2.6427,2.6436,2.6444,2.6441,2.6452,2.6468,2.6478,2.6496,2.6511,2.6525,2.6529,2.6521,2.652,2.6525,2.6527,2.6528,2.6528,2.6462,2.6518,2.6518,2.6518,2.6517,2.6517,2.6417,2.643,2.6438,2.6452,2.6459,2.6468,2.6481,2.6483,2.6496,2.6511,2.6508,2.6527,2.6535,2.6552,2.6558,2.6573,2.6565,2.6573,2.6575,2.6576,2.6579,2.6526,2.6575,2.6575,2.6575,2.6575,2.6575,0,2.6463,2.6468,2.6481,2.6494,2.6506,2.6499,2.6509,2.6519,2.6536,2.6544,2.6556,2.6576,2.6591,2.6595,2.661,2.6622,2.6619,2.6626,2.6625,2.6626,2.6585,2.6579,2.6628,2.6628,2.6628,2.6628,2.6628,2.6628,2.6488,2.651,2.6511,2.6537,2.6542,2.656,2.6567,2.6575,2.6582,2.6604,2.6617,2.662,2.6627,2.6643,2.6657,2.6658,2.6664,2.6673,2.6673,2.6634,2.6629,2.6624,2.6618,2.6674,2.6674,2.6712,2.6713,2.6713]},{"header":{"parameterUnit":"m.s-1","parameterCategory":1,"la1":30.2991,"la2":30.254,"lo1":-89.0895,"lo2":-89.0444,"dy":0.0017,"dx":0.0017,"nx":28,"ny":28,"refTime":"2023-03-19T21:00:00:Z","depth":0,"parameterNumber":3,"parameterNumberName":"V-component_of_WINDS"},"data":[0,0,0,0,0,0,0,0,0,0,0,0,0,0,0,0,0,0,0,0,0,0,0,0,0,0,0,0,0,0,0,0,0,0,0,0,0,0,0,0,0,0,0,0,0,0,0,0,0,0,0,0,0,0,0,0,0,0,-6.3219,-6.322,0,-6.3303,-6.3304,-6.3305,-6.3289,-6.3288,-6.3286,-6.3285,-6.3366,-6.3369,-6.3373,0,0,0,0,0,0,0,0,0,0,0,0,0,-6.3042,-6.3045,-6.3219,-6.322,-6.3221,-6.3303,-6.3304,-6.3305,-6.3289,-6.3288,-6.3286,-6.3284,-6.3365,-6.3369,-6.3373,0,0,0,0,0,0,0,0,0,0,0,0,0,-6.3121,-6.3046,-6.3219,-6.3223,-6.3225,-6.3303,-6.3304,-6.3305,-6.329,-6.3288,-6.3285,-6.3283,-6.3363,-6.3368,-6.3374,-6.3451,0,0,-6.339,-6.3392,0,0,0,0,0,0,0,0,-6.3117,-6.3128,-6.3222,-6.3223,-6.3225,-6.3283,-6.3271,-6.3354,-6.329,-6.3265,-6.3285,-6.3282,-6.334,-6.3347,-6.3367,-6.3455,-6.3458,-6.339,-6.3393,-6.3396,-6.3397,0,0,0,0,0,0,0,-6.3111,-6.3124,-6.3252,-6.3223,-6.3225,-6.322,-6.3229,-6.3287,-6.3314,-6.3267,-6.3266,-6.3276,-6.334,-6.3362,-6.3369,-6.3459,-6.339,-6.3395,-6.3398,-6.34,-6.3616,-6.3618,0,0,0,0,0,0,-6.3105,-6.312,-6.3249,-6.3255,-6.3164,-6.3225,-6.3235,-6.3267,-6.3313,-6.3318,-6.3278,-6.3275,-6.3354,-6.3363,-6.3372,-6.3467,-6.3396,-6.3401,-6.3404,-6.3613,-6.3616,-6.3619,0,0,0,0,0,0,-6.3101,-6.3117,-6.3246,-6.3187,-6.3203,-6.323,-6.3266,-6.327,-6.3292,-6.3322,-6.3326,-6.3296,-6.3353,-6.3364,-6.3432,-6.3469,-6.3403,-6.3408,-6.361,-6.3614,-6.3618,-6.3656,0,0,0,0,0,0,-6.3096,-6.3116,-6.3146,-6.3188,-6.3206,-6.3306,-6.3269,-6.3273,-6.3301,-6.3299,-6.334,-6.3344,-6.3352,-6.3424,-6.3437,-6.3475,-6.3412,-6.3607,-6.3612,-6.3617,-6.3651,-6.366,-6.3668,0,0,0,0,0,-6.309,-6.3152,-6.3148,-6.3163,-6.3245,-6.3308,-6.3318,-6.3328,-6.3305,-6.3335,-6.3354,-6.3343,-6.3463,-6.3431,-6.3446,-6.3486,-6.3605,-6.3611,-6.3616,-6.3647,-6.3659,-6.3668,0,0,0,0,0,0,-6.3111,-6.3157,-6.3153,-6.3231,-6.3266,-6.3305,-6.3344,-6.3339,-6.338,-6.3375,-6.3384,-6.3393,-6.3462,-6.3481,-6.3444,-6.3564,-6.353,-6.3539,-6.3549,-6.356,-6.3568,-6.3562,-6.3417,0,0,0,0,0,-6.3125,-6.3174,-6.3211,-6.3276,-6.3294,-6.3316,-6.3344,-6.3348,-6.3384,-6.3398,-6.3423,-6.3457,-6.3503,-6.3532,-6.3576,-6.3654,-6.3663,-6.3689,-6.3697,-6.3704,-6.3711,-6.3755,-6.3767,-6.3638,-6.3638,-6.3638,0,0,-6.3154,-6.3185,-6.3215,-6.3281,-6.3309,-6.3358,-6.3329,-6.3381,-6.3418,-6.3406,-6.3472,-6.3491,-6.353,-6.3604,-6.3637,-6.3621,-6.3749,-6.3711,-6.3716,-6.372,-6.3762,-6.3774,-6.3785,-6.3642,-6.3641,-6.364,0,0,-6.3232,-6.3261,-6.3318,-6.3348,-6.3391,-6.3406,-6.342,-6.3461,-6.3474,-6.3541,-6.3533,-6.3576,-6.3654,-6.3682,-6.3707,-6.3798,-6.3789,-6.3812,-6.3856,-6.3898,-6.3908,-6.3917,-6.395,-6.3962,-6.3819,-6.3819,-6.3819,0,-6.3262,-6.3337,-6.3348,-6.3403,-6.3432,-6.3426,-6.3484,-6.3511,-6.3566,-6.3586,-6.3568,-6.3667,-6.3693,-6.3773,-6.3796,-6.3816,-6.3832,-6.3807,-6.3906,-6.3915,-6.3924,-6.3955,-6.3968,-6.3822,-6.3822,-6.3821,-6.3821,0,-6.3372,-6.3424,-6.3466,-6.3521,-6.3555,-6.3611,-6.363,-6.3663,-6.3665,-6.3681,-6.3749,-6.378,-6.3831,-6.385,-6.3851,-6.3932,-6.3921,-6.3904,-6.3871,-6.3939,-6.3968,-6.398,-6.3825,-6.3825,-6.3824,-6.3823,0,0,-6.3464,-6.3527,-6.3542,-6.3568,-6.3616,-6.3656,-6.3712,-6.3763,-6.3791,-6.383,-6.3876,-6.3944,-6.393,-6.3958,-6.3963,-6.4,-6.4071,-6.3979,-6.398,-6.3995,-6.4162,-6.4174,-6.4187,-6.4066,-6.4068,-6.407,-6.4159,0,-6.3546,-6.3647,-6.366,-6.3749,-6.3797,-6.3793,-6.3842,-6.3876,-6.3894,-6.3937,-6.3955,-6.4003,-6.398,-6.3998,-6.4034,-6.4055,-6.4104,-6.4048,-6.4108,-6.4111,-6.4099,-6.4203,-6.4215,-6.4298,-6.417,-6.4172,-6.4174,0,-6.3656,-6.37,-6.3795,-6.3838,-6.3859,-6.3903,-6.3952,-6.3993,-6.4032,-6.4042,-6.4075,-6.4075,-6.4132,-6.4097,-6.4176,-6.4137,-6.4163,-6.4177,-6.418,-6.4186,-6.4146,-6.4211,-6.4324,-6.4336,-6.4192,-6.419,-6.4189,0,-6.3714,-6.3797,-6.3865,-6.3887,-6.3939,-6.397,-6.3993,-6.403,-6.406,-6.4103,-6.4123,-6.417,-6.4196,-6.4232,-6.4245,-6.4219,-6.4324,-6.4289,-6.4333,-6.4333,-6.4355,-6.4353,-6.4473,-6.4371,-6.4371,-6.4371,-6.4371,0,-6.3805,-6.3863,-6.3892,-6.3933,-6.3998,-6.4012,-6.4076,-6.4097,-6.413,-6.4175,-6.4174,-6.4216,-6.4231,-6.4275,-6.4285,-6.4349,-6.4361,-6.437,-6.4372,-6.437,-6.4369,-6.4386,-6.4381,-6.4374,-6.4373,-6.4373,-6.4372,0,-6.388,-6.3902,-6.3976,-6.402,-6.4033,-6.4079,-6.4116,-6.4156,-6.4174,-6.4231,-6.4245,-6.4272,-6.4324,-6.4341,-6.4403,-6.441,-6.4485,-6.4482,-6.4472,-6.4473,-6.4515,-6.4511,-6.465,-6.467,-6.4555,-6.4556,-6.4557,0,-6.3937,-6.3982,-6.4032,-6.4064,-6.4088,-6.4138,-6.417,-6.4185,-6.4218,-6.4268,-6.4302,-6.4354,-6.4397,-6.448,-6.4504,-6.4552,-6.455,-6.4596,-6.4557,-6.4555,-6.4551,-6.4549,-6.4553,-6.4603,-6.4604,-6.4605,-6.4606,0,-6.4035,-6.4044,-6.4091,-6.4143,-6.4182,-6.4223,-6.4262,-6.4287,-6.4308,-6.4345,-6.44,-6.4433,-6.4499,-6.4551,-6.46,-6.4622,-6.4618,-6.4618,-6.4631,-6.4629,-6.4622,-6.4627,-6.4492,-6.4615,-6.4614,-6.4613,-6.4613,-6.4612,-6.4103,-6.4144,-6.4186,-6.4239,-6.4271,-6.4308,-6.4348,-6.4372,-6.4418,-6.4474,-6.448,-6.4539,-6.4578,-6.4644,-6.4669,-6.4715,-6.4701,-6.4719,-6.4724,-6.4728,-6.4732,-6.4615,-6.4723,-6.4723,-6.4723,-6.4723,-6.4723,0,-6.4202,-6.4229,-6.4278,-6.4335,-6.4376,-6.4371,-6.4414,-6.4449,-6.4502,-6.4539,-6.4582,-6.4646,-6.4696,-6.4726,-6.4776,-6.4807,-6.4807,-6.482,-6.4818,-6.4823,-6.4741,-6.4725,-6.482,-6.482,-6.482,-6.482,-6.482,-6.482,-6.4258,-6.4326,-6.4341,-6.4425,-6.4452,-6.4512,-6.4537,-6.4571,-6.4602,-6.4673,-6.4716,-6.4736,-6.477,-6.4824,-6.487,-6.4877,-6.4896,-6.4911,-6.4916,-6.4839,-6.4829,-6.4819,-6.4804,-6.4915,-6.4915,-6.4995,-6.4996,-6.4996]}]]